Theta_e
311 310 310 309 309 310 310 311 311 311 312 312 312 313 313 313 313 313 313 313 313 312 312 314 315 315 316 317 317 316 307 310 314 311 314 315 314 315 315 314 315 315 315 314 314
311 310 309 309 310 310 311 311 312 312 312 313 313 314 314 315 316 315 314 314 313 312 312 313 314 315 316 318 318 311 306 309 312 313 314 315 314 315 315 314 314 315 314 314 315
310 309 309 310 310 311 312 312 312 313 313 315 316 318 319 320 319 314 312 312 312 312 312 313 315 315 315 318 317 313 310 311 315 315 315 315 314 315 314 313 314 314 313 313 313
310 309 309 310 311 312 312 312 313 314 316 318 320 320 320 319 318 313 312 311 312 312 313 314 315 316 313 314 316 316 315 314 316 316 316 315 315 314 314 314 313 313 313 314 314
309 309 309 310 311 312 312 313 314 317 319 319 319 318 318 317 319 318 313 312 311 312 313 313 315 315 313 314 314 315 314 314 315 315 315 314 313 313 314 313 313 312 312 313 312
309 309 309 311 312 312 312 314 317 319 319 318 318 318 318 315 317 317 317 313 313 312 312 312 314 315 315 313 313 313 313 313 314 314 313 312 312 313 312 313 312 312 313 311 310
308 309 310 311 311 312 314 317 318 318 318 318 318 319 319 318 317 317 317 316 313 312 312 312 315 315 315 313 313 313 312 309 311 311 311 311 312 310 312 312 313 312 311 310 309
308 309 310 311 311 313 316 317 318 317 317 318 318 319 318 317 317 316 316 316 314 312 312 313 315 315 315 314 311 311 308 310 310 311 312 312 313 312 312 312 310 309 309 308 308
308 309 311 311 312 314 317 318 318 318 319 319 319 318 317 315 315 315 314 314 314 313 313 314 315 314 313 308 308 306 311 309 310 311 311 311 312 311 311 311 309 307 306 306 306
309 310 311 311 313 315 317 318 319 319 319 319 319 317 316 314 313 313 313 313 313 313 313 314 313 307 305 308 313 311 309 309 310 312 310 311 309 308 310 310 308 305 305 304 304
310 311 311 312 315 317 318 319 320 319 320 319 317 317 314 314 313 311 312 312 312 312 309 310 308 309 308 307 309 308 309 311 310 310 312 310 309 309 311 307 304 304 303 302 303
312 312 314 315 316 318 319 321 320 318 319 319 320 317 315 313 312 310 311 312 311 309 308 307 308 308 308 308 308 309 310 309 308 308 310 309 309 308 308 306 304 303 302 301 301
314 315 316 317 319 319 320 321 321 320 319 319 319 319 318 315 315 314 311 311 309 308 307 308 311 307 308 307 308 308 308 309 310 310 309 309 309 308 304 303 302 302 301 301 301
316 316 317 320 320 319 320 320 321 320 316 316 315 316 316 317 315 315 311 312 309 310 307 308 308 311 308 309 307 309 307 309 310 311 313 309 312 308 306 303 301 300 300 300 300
317 317 318 319 319 320 320 320 321 318 320 314 312 312 313 315 311 309 309 310 309 309 308 313 310 309 310 310 308 311 308 309 309 309 309 309 309 308 305 306 302 300 299 299 299
318 318 319 320 320 320 321 321 319 318 321 314 309 308 310 308 308 308 310 310 310 309 309 310 309 308 310 308 309 306 308 307 306 306 309 309 310 309 307 307 302 300 300 299 299
318 318 319 318 321 321 321 319 319 322 316 313 310 307 309 307 307 307 307 308 309 312 312 310 310 309 308 309 307 307 309 313 313 310 314 308 308 309 307 304 303 301 300 299 299
319 318 319 318 320 320 319 317 321 320 317 309 308 307 309 307 307 307 307 309 306 308 308 312 316 309 307 310 309 307 309 313 315 312 312 307 311 311 301 300 301 302 302 300 299
320 319 319 319 319 320 318 322 322 318 317 310 310 309 308 308 307 307 305 306 307 305 315 312 315 308 306 307 309 308 309 309 310 296 305 311 310 304 301 300 299 299 300 300 300
320 320 319 319 319 321 319 323 319 317 314 311 316 312 310 312 309 307 306 306 310 305 310 312 316 310 307 308 307 308 307 311 308 311 312 312 310 312 305 302 298 298 299 300 300
321 320 320 320 319 318 321 321 321 318 317 314 315 314 311 313 310 307 310 310 308 308 309 310 313 312 309 308 309 310 310 310 309 309 313 309 312 303 305 301 299 299 301 301 302
321 321 320 321 319 319 320 319 319 318 316 314 314 315 314 313 311 310 311 312 310 308 310 310 309 308 311 307 306 308 309 310 314 311 306 309 314 301 302 300 301 301 302 303 303
318 318 319 321 322 321 318 320 318 317 317 314 314 314 311 313 317 311 311 310 309 309 311 310 310 306 309 309 307 308 307 307 307 306 307 314 312 301 301 300 302 303 303 303 303
315 312 312 313 318 321 320 319 318 315 315 314 314 312 313 314 313 313 311 309 309 309 311 311 309 309 314 309 308 310 307 305 309 313 314 312 312 305 303 302 301 302 303 304 303
311 309 310 313 315 316 319 317 318 316 313 313 312 315 317 316 314 314 310 308 308 309 309 311 310 309 309 307 306 307 307 305 307 309 313 311 309 304 304 302 303 304 303 302 302
308 307 307 307 311 314 317 317 317 316 313 313 314 313 315 316 314 312 311 310 310 306 308 305 311 306 305 306 305 306 306 304 306 306 305 305 305 303 304 303 301 302 302 301 300
304 306 308 306 308 312 313 315 315 314 309 312 313 313 314 314 310 307 309 309 309 308 307 305 304 302 311 300 302 308 305 306 305 304 306 307 306 294 296 297 299 300 298 297 298
Wind_Speed
5 5 5 5 4 4 4 4 4 5 5 6 7 8 9 9 10 11 11 5 3 4 3 3 1 0 2 3 4 2 4 2 4 6 2 1 3 1 4 2 5 3 4 6 10
8 8 7 7 6 6 6 6 6 7 8 8 8 9 9 11 11 10 5 5 4 4 4 4 2 1 2 2 2 4 3 6 3 2 2 3 2 5 4 8 2 7 4 8 9
11 10 10 9 8 8 8 8 8 8 9 9 9 9 10 10 10 3 2 2 5 7 6 3 2 1 2 1 2 2 3 3 3 6 2 2 3 1 3 3 2 9 8 6 5
13 12 12 11 10 9 10 10 9 9 9 10 10 11 10 8 2 1 2 4 6 6 4 2 1 1 2 1 1 1 3 4 3 3 2 3 2 2 7 2 6 2 3 6 6
16 14 13 12 11 11 11 11 11 10 11 11 12 11 10 5 5 6 5 7 7 8 5 3 3 3 2 2 2 2 2 3 7 10 12 10 8 5 15 11 8 3 2 3 4
18 16 14 13 12 12 12 12 12 12 13 12 12 11 9 6 7 8 8 8 8 9 8 5 3 4 2 2 2 1 5 11 11 13 10 6 2 1 2 8 6 3 5 6 6
20 18 16 14 13 13 13 13 13 13 14 13 12 11 12 14 10 8 9 9 10 10 9 6 5 5 4 2 1 2 4 7 8 5 4 3 1 5 8 5 3 4 3 5 7
22 20 18 16 15 14 14 14 14 14 14 13 12 10 8 10 11 12 13 9 9 9 8 6 8 4 2 3 4 4 4 4 3 3 1 4 7 3 9 6 3 2 1 3 6
24 22 20 18 17 16 15 14 13 14 13 13 11 7 7 8 10 12 10 10 10 8 7 7 7 3 4 5 4 5 3 4 8 3 2 3 7 2 3 2 2 1 2 2 2
25 24 21 19 18 18 15 13 13 14 13 12 12 5 11 5 7 9 10 9 7 10 8 6 3 3 3 4 5 6 4 4 6 1 1 1 8 10 5 7 5 7 6 4 3
28 26 23 20 19 18 14 10 10 8 14 9 4 5 2 8 8 8 11 12 10 7 5 3 4 8 13 10 3 5 5 6 3 3 2 6 6 12 16 6 11 10 9 7 7
29 27 24 22 20 19 15 8 7 4 8 13 21 18 11 10 7 11 14 10 7 5 6 4 7 10 4 5 5 3 4 6 5 3 4 7 8 11 2 1 6 14 13 11 12
29 26 23 21 18 20 18 16 11 7 5 8 17 17 19 19 9 14 18 8 4 6 7 7 5 7 6 5 6 5 8 4 7 3 3 2 6 8 3 4 7 11 13 14 14
28 25 23 18 17 21 20 13 10 3 2 6 6 6 10 10 5 12 20 8 3 10 7 6 4 5 4 6 7 6 8 7 5 3 4 1 5 5 4 4 5 14 18 17 16
28 26 25 25 13 16 14 14 10 5 5 3 4 6 9 9 10 3 13 5 7 7 7 7 5 4 6 6 7 7 5 6 4 3 1 3 2 7 6 6 7 12 14 13 11
30 28 28 26 25 14 15 15 13 3 10 3 4 6 6 3 3 5 5 4 4 4 1 5 1 6 7 2 4 6 5 6 4 3 2 9 8 4 5 4 4 13 19 19 17
31 31 34 32 33 20 17 20 3 7 1 6 5 6 4 6 4 4 5 6 6 5 6 2 5 3 4 4 2 4 5 1 3 2 6 1 2 5 2 2 1 15 24 21 18
32 32 37 36 34 27 27 3 10 9 9 4 6 4 8 8 5 6 7 5 6 3 3 7 4 10 6 7 6 7 7 5 6 3 4 3 6 4 2 5 6 13 24 22 21
34 37 43 42 38 33 29 10 13 7 7 11 4 5 5 5 6 5 8 6 9 13 8 5 4 1 3 4 7 5 5 4 4 2 2 4 4 3 1 3 6 17 25 24 22
42 45 51 46 46 43 14 22 11 7 8 5 17 10 13 9 8 9 10 6 6 13 5 6 2 0 2 4 4 4 6 3 2 2 5 4 4 5 6 7 6 11 24 25 22
47 24 29 53 48 28 14 13 15 11 13 9 12 9 7 9 10 7 8 3 6 6 6 5 3 1 3 5 9 3 2 3 3 4 5 3 5 5 6 7 11 17 25 26 23
46 11 29 44 18 8 17 16 10 12 24 8 4 5 9 10 9 8 13 8 15 15 10 7 4 4 8 2 2 3 7 7 6 7 3 2 12 1 3 12 18 20 24 22 20
10 13 28 42 15 13 6 14 14 9 14 8 9 5 4 8 4 6 6 1 15 10 10 9 3 2 5 1 2 5 5 3 3 3 7 5 8 1 1 8 17 19 21 22 21
10 3 6 19 15 23 20 18 15 11 9 6 5 3 5 5 2 7 7 2 8 6 6 13 6 8 9 6 5 5 6 5 6 6 8 14 17 4 5 7 12 16 16 19 21
7 1 5 5 13 10 21 16 21 11 7 15 3 12 15 6 8 7 5 3 2 3 3 4 5 3 2 3 4 6 7 9 10 11 12 14 15 7 11 9 18 17 14 16 16
11 6 5 2 3 12 16 21 24 14 12 6 5 12 14 10 11 11 9 5 5 0 4 2 3 3 2 2 4 6 11 11 15 6 6 4 13 7 12 16 15 18 18 19 22
4 11 7 4 2 7 4 10 15 12 1 4 11 7 12 11 6 6 3 10 8 8 7 7 6 4 8 4 6 10 13 15 7 5 10 14 14 3 5 12 18 18 17 17 16
Wind_Direction
260 265 268 269 273 276 283 292 300 305 307 310 313 315 316 316 314 313 311 286 259 226 225 205 203 60 18 50 58 85 62 163 207 159 211 0 39 191 313 252 297 266 295 303 296
259 260 262 265 269 274 281 286 292 297 301 305 307 310 313 316 319 312 294 264 233 203 181 181 171 106 75 57 40 80 106 216 218 203 202 326 2 334 337 326 358 333 329 287 288
252 254 255 255 260 267 274 280 285 288 292 297 302 307 312 321 329 350 7 158 161 155 155 156 126 27 83 68 22 106 166 212 262 242 276 324 312 163 308 337 106 327 347 22 27
247 250 252 256 262 267 272 275 277 281 285 291 296 299 304 312 305 300 169 157 158 163 169 197 200 96 95 134 151 62 230 214 274 250 296 274 280 272 252 238 331 339 13 345 335
246 246 248 253 260 266 270 274 277 278 283 290 294 298 303 282 259 252 232 218 210 213 218 247 228 173 174 168 139 163 288 281 282 281 276 268 252 243 265 278 262 233 302 343 339
247 246 248 254 261 266 268 270 275 281 284 287 290 293 289 263 267 256 242 235 227 226 235 253 229 195 136 124 161 307 305 300 294 281 277 240 219 243 28 146 162 247 310 339 348
245 247 249 252 257 261 263 269 273 277 280 284 286 289 277 267 267 256 242 236 230 231 233 232 191 174 154 100 24 345 339 325 271 275 245 202 254 215 167 167 213 240 287 328 343
244 246 251 256 256 255 259 266 271 275 279 282 285 285 262 257 252 249 241 226 221 220 216 205 195 161 143 118 23 24 57 360 287 175 240 147 264 83 185 213 209 199 343 2 1
243 246 249 252 252 253 255 260 267 274 278 280 281 264 263 254 241 235 224 217 211 198 180 176 169 135 130 96 11 3 244 208 311 211 123 153 262 162 116 203 144 141 85 57 41
241 245 247 247 247 249 252 259 266 272 270 271 257 264 239 228 218 210 205 193 182 181 158 173 138 87 51 108 227 199 217 242 235 6 99 205 269 289 258 258 202 175 154 142 110
240 241 241 239 239 243 245 260 272 267 237 216 220 206 218 208 201 195 187 175 152 162 150 138 123 209 200 199 156 151 177 221 252 237 157 238 246 263 285 153 161 170 154 138 111
239 238 236 231 231 236 234 219 231 264 298 253 241 239 236 204 199 196 183 176 170 163 121 54 225 223 129 173 184 127 177 248 289 241 164 269 262 256 299 142 218 180 164 149 128
235 233 225 223 226 234 231 228 244 277 270 262 235 239 233 224 221 203 188 185 152 140 191 172 215 144 156 169 167 200 212 206 221 347 253 314 273 251 72 79 104 155 161 159 153
229 224 215 203 229 234 232 225 227 248 299 260 213 217 197 178 217 197 188 184 183 195 162 231 270 192 171 211 148 220 194 189 217 113 241 161 273 290 165 116 137 167 175 171 162
226 219 206 199 214 212 221 208 190 165 286 219 167 166 160 175 139 162 182 187 170 173 137 237 176 173 205 217 164 227 140 166 161 172 102 265 324 257 144 215 200 195 182 173 165
225 216 200 204 217 212 194 176 157 79 242 207 144 159 134 156 130 117 159 142 132 128 214 229 225 167 202 109 177 131 74 47 48 105 244 223 188 262 195 210 145 184 186 179 176
223 215 203 203 214 199 177 159 158 218 53 192 188 172 159 158 164 152 163 170 162 133 222 198 223 186 170 107 76 94 96 325 331 327 235 15 168 257 173 66 230 187 188 184 178
221 214 210 208 215 198 174 142 219 201 202 122 135 111 183 156 203 167 138 194 237 169 129 170 256 167 190 189 173 177 161 165 226 224 275 350 234 245 336 336 285 209 191 185 183
219 216 214 209 212 205 179 202 222 171 168 140 93 145 223 212 156 143 194 203 201 185 188 155 267 152 160 143 146 187 180 160 103 102 29 211 301 271 78 61 111 160 179 188 191
219 218 216 214 210 205 208 217 216 175 138 144 194 181 183 191 161 177 178 202 213 188 193 204 140 157 131 103 30 174 163 96 17 270 259 249 251 233 245 216 170 172 186 193 196
219 216 216 212 207 201 213 221 220 197 181 182 203 182 184 176 185 191 201 230 201 166 154 149 135 229 106 208 174 138 184 75 135 168 196 275 253 202 222 184 193 197 199 200 200
217 215 205 203 200 201 218 209 198 196 203 218 200 145 175 174 178 205 199 213 173 145 163 193 132 169 195 169 149 179 191 166 200 225 244 149 264 38 298 193 193 197 202 206 212
218 193 188 190 208 208 187 213 216 173 199 185 186 190 157 164 189 194 193 248 169 159 163 177 185 79 354 52 333 213 203 166 106 72 195 219 264 359 55 178 198 200 203 208 215
184 155 181 214 216 211 205 212 214 203 186 176 157 128 128 153 163 190 202 199 183 176 178 167 167 168 213 188 140 186 203 185 189 226 241 243 268 184 223 206 197 207 208 213 220
160 158 164 210 214 218 198 188 197 184 219 167 192 190 177 171 174 188 177 160 56 140 104 167 216 176 205 164 183 205 205 176 196 214 224 257 232 178 206 207 213 216 222 223 223
148 159 181 311 206 210 204 201 198 193 169 190 180 178 181 184 187 184 168 170 168 93 135 346 197 117 279 170 223 261 235 189 211 208 241 224 261 175 237 244 241 238 235 237 258
173 160 165 156 248 195 211 194 196 177 196 158 195 159 211 200 114 66 86 162 143 150 172 162 143 118 244 81 60 274 227 214 205 192 219 230 239 150 208 216 226 236 235 237 231